| time (UTC) | temp F | wind direction | speed knots | gust knots | rain 1hr in | rain 24hr in | rain mn in | humidity % | barometer mb |
| 20260504201528 | 65 | 153 | 7.0 | 14.8 | 0.00 | 0.00 | 0.00 | 37 | 1010.6 |
| 20260504200038 | 64 | 238 | 6.1 | 18.2 | 0.00 | 0.00 | 0.00 | 35 | 1010.7 |
| 20260504194528 | 65 | 235 | 6.1 | 13.0 | 0.00 | 0.00 | 0.00 | 33 | 1010.4 |
| 20260504193028 | 65 | 119 | 6.1 | 10.4 | 0.00 | 0.00 | 0.00 | 32 | 1010.9 |
| 20260504191546 | 64 | 0 | 2.6 | 8.7 | 0.00 | 0.00 | 0.00 | 32 | 1011.1 |
| 20260504190027 | 62 | 225 | 2.6 | 7.0 | 0.00 | 0.00 | 0.00 | 34 | 1011.4 |
| 20260504184612 | 62 | 238 | 0.9 | 10.4 | 0.00 | 0.00 | 0.00 | 35 | 1011.8 |
| 20260504184527 | 62 | 238 | 0.9 | 10.4 | 0.00 | 0.00 | 0.00 | 35 | 1011.8 |
| 20260504183039 | 64 | 5 | 7.0 | 11.3 | 0.00 | 0.00 | 0.00 | 35 | 1011.9 |
| 20260504181529 | 64 | 257 | 5.2 | 12.2 | 0.00 | 0.00 | 0.00 | 35 | 1012.1 |
| 20260504180030 | 62 | 219 | 7.0 | 13.9 | 0.00 | 0.00 | 0.00 | 40 | 1012.3 |
| 20260504174530 | 61 | 231 | 5.2 | 12.2 | 0.00 | 0.00 | 0.00 | 39 | 1012.4 |
| 20260504173029 | 61 | 226 | 3.5 | 11.3 | 0.00 | 0.00 | 0.00 | 37 | 1012.9 |
| 20260504171528 | 60 | 214 | 2.6 | 6.1 | 0.00 | 0.00 | 0.00 | 37 | 1013.1 |
| 20260504081529 | 31 | 336 | 0.0 | 1.7 | 0.00 | 0.00 | 0.00 | 70 | 1013.5 |
| 20260504044537 | 40 | 0 | 0.0 | 1.7 | 0.00 | 0.00 | 0.00 | 51 | 1014.2 |
| 20260504043029 | 40 | 0 | 0.0 | 2.6 | 0.00 | 0.00 | 0.00 | 50 | 1014.2 |
| 20260504041532 | 41 | 341 | 0.9 | 3.5 | 0.00 | 0.00 | 0.00 | 47 | 1014.2 |
| 20260504040033 | 42 | 342 | 2.6 | 3.5 | 0.00 | 0.00 | 0.00 | 46 | 1014.2 |
| 20260504034546 | 43 | 331 | 0.9 | 2.6 | 0.00 | 0.00 | 0.00 | 44 | 1014.2 |
| 20260504033029 | 45 | 336 | 0.9 | 2.6 | 0.00 | 0.00 | 0.00 | 43 | 1014.2 |
| 20260504031530 | 46 | 321 | 1.7 | 3.5 | 0.00 | 0.00 | 0.00 | 40 | 1014.2 |
| 20260504030042 | 48 | 297 | 0.9 | 2.6 | 0.00 | 0.00 | 0.00 | 38 | 1014.0 |
| 20260504024530 | 50 | 331 | 0.0 | 2.6 | 0.00 | 0.00 | 0.00 | 35 | 1013.7 |
| 20260504023031 | 53 | 313 | 0.9 | 1.7 | 0.00 | 0.00 | 0.00 | 32 | 1013.5 |
| 20260504021530 | 57 | 289 | 1.7 | 3.5 | 0.00 | 0.00 | 0.00 | 28 | 1013.3 |
| 20260504020032 | 58 | 277 | 1.7 | 5.2 | 0.00 | 0.00 | 0.00 | 23 | 1013.3 |
| 20260504014540 | 60 | 255 | 0.9 | 3.5 | 0.00 | 0.00 | 0.00 | 22 | 1013.3 |
| 20260504013033 | 61 | 281 | 1.7 | 3.5 | 0.00 | 0.00 | 0.00 | 21 | 1013.2 |
| 20260504011530 | 62 | 269 | 2.6 | 6.1 | 0.00 | 0.00 | 0.00 | 21 | 1013.3 |
| 20260504010030 | 63 | 277 | 1.7 | 7.8 | 0.00 | 0.00 | 0.00 | 21 | 1013.4 |
| 20260504004532 | 63 | 275 | 4.3 | 8.7 | 0.00 | 0.00 | 0.00 | 21 | 1013.4 |
| 20260504003035 | 64 | 264 | 5.2 | 10.4 | 0.00 | 0.00 | 0.00 | 17 | 1013.4 |
| 20260504001530 | 65 | 278 | 6.1 | 14.8 | 0.00 | 0.00 | 0.00 | 15 | 1013.5 |
| 20260504000030 | 67 | 254 | 7.8 | 13.9 | 0.00 | 0.00 | 0.00 | 16 | 1013.7 |
| 20260503234538 | 67 | 269 | 7.0 | 16.5 | 0.00 | 0.00 | 0.00 | 16 | 1013.8 |
| 20260503233030 | 67 | 256 | 9.6 | 19.1 | 0.00 | 0.00 | 0.00 | 15 | 1013.9 |
| 20260503231533 | 68 | 225 | 7.0 | 15.6 | 0.00 | 0.00 | 0.00 | 17 | 1013.9 |
| 20260503230030 | 68 | 263 | 5.2 | 20.0 | 0.00 | 0.00 | 0.00 | 16 | 1014.1 |
| 20260503224529 | 69 | 222 | 7.8 | 20.9 | 0.00 | 0.00 | 0.00 | 15 | 1014.0 |
| 20260503223030 | 70 | 271 | 11.3 | 21.7 | 0.00 | 0.00 | 0.00 | 15 | 1014.2 |
| 20260503221534 | 70 | 302 | 13.0 | 21.7 | 0.00 | 0.00 | 0.00 | 18 | 1014.4 |
| 20260503220031 | 70 | 263 | 8.7 | 16.5 | 0.00 | 0.00 | 0.00 | 18 | 1014.6 |
| 20260503214530 | 70 | 281 | 9.6 | 18.2 | 0.00 | 0.00 | 0.00 | 17 | 1014.7 |
| 20260503213036 | 70 | 254 | 7.8 | 20.9 | 0.00 | 0.00 | 0.00 | 19 | 1015.0 |
| 20260503211532 | 69 | 253 | 11.3 | 19.1 | 0.00 | 0.00 | 0.00 | 20 | 1015.2 |
| 20260503210031 | 69 | 261 | 9.6 | 21.7 | 0.00 | 0.00 | 0.00 | 19 | 1015.3 |
| 20260503204545 | 69 | 199 | 7.8 | 20.9 | 0.00 | 0.00 | 0.00 | 19 | 1015.5 |
| 20260503203031 | 69 | 236 | 6.1 | 20.0 | 0.00 | 0.00 | 0.00 | 20 | 1015.8 |